Time,TemperatureF,DewpointF,PressureIn,WindDirection,WindDirectionDegrees,WindSpeedMPH,WindSpeedGustMPH,Humidity,HourlyPrecipIn,Conditions,Clouds,dailyrainin,SoftwareType,DateUTC
2013-07-27 00:02:00,65.0,47.0,-100.00,NNW,330,5.0,10.0,52,0.00,,,0.00,,2013-07-27 08:02:00,
2013-07-27 00:12:00,65.0,47.0,-100.00,NNW,330,5.0,10.0,52,0.00,,,0.00,,2013-07-27 08:12:00,
2013-07-27 00:20:00,64.0,47.0,-100.00,WNW,300,4.0,9.0,53,0.00,,,0.00,,2013-07-27 08:20:00,
2013-07-27 00:32:00,64.0,47.0,-100.00,NW,305,4.0,9.0,53,0.00,,,0.00,,2013-07-27 08:32:00,
2013-07-27 00:43:00,64.0,47.0,-100.00,NW,305,4.0,9.0,53,0.00,,,0.00,,2013-07-27 08:43:00,
2013-07-27 00:53:00,64.0,47.0,-100.00,WNW,300,4.0,9.0,53,0.00,,,0.00,,2013-07-27 08:53:00,
2013-07-27 01:02:00,64.0,47.0,-100.00,WNW,300,4.0,9.0,53,0.00,,,0.00,,2013-07-27 09:02:00,
2013-07-27 01:11:00,64.0,47.0,-100.00,WNW,300,4.0,9.0,53,0.00,,,0.00,,2013-07-27 09:11:00,
2013-07-27 01:44:00,64.0,47.0,-100.00,WNW,290,4.0,10.0,54,0.00,,,0.00,,2013-07-27 09:44:00,
2013-07-27 02:02:00,64.0,47.0,-100.00,WNW,285,4.0,7.0,54,0.00,,,0.00,,2013-07-27 10:02:00,
2013-07-27 02:12:00,64.0,47.0,-100.00,WNW,285,4.0,7.0,54,0.00,,,0.00,,2013-07-27 10:12:00,
2013-07-27 03:02:00,63.0,47.0,-100.00,WNW,285,5.0,9.0,55,0.00,,,0.00,,2013-07-27 11:02:00,
2013-07-27 03:12:00,63.0,47.0,-100.00,WNW,285,5.0,9.0,55,0.00,,,0.00,,2013-07-27 11:12:00,
2013-07-27 04:02:00,61.0,47.0,-100.00,West,265,4.0,6.0,60,0.00,,,0.00,,2013-07-27 12:02:00,
2013-07-27 04:12:00,61.0,47.0,-100.00,West,265,4.0,6.0,60,0.00,,,0.00,,2013-07-27 12:12:00,
2013-07-27 04:20:00,61.0,47.0,-100.00,West,280,6.0,11.0,60,0.00,,,0.00,,2013-07-27 12:20:00,
2013-07-27 04:43:00,61.0,48.0,-100.00,West,275,4.0,7.0,61,0.00,,,0.00,,2013-07-27 12:43:00,
2013-07-27 05:02:00,61.0,47.0,-100.00,West,280,6.0,11.0,60,0.00,,,0.00,,2013-07-27 13:02:00,
2013-07-27 05:12:00,61.0,47.0,-100.00,West,280,6.0,11.0,60,0.00,,,0.00,,2013-07-27 13:12:00,
2013-07-27 05:20:00,60.0,48.0,-100.00,West,280,6.0,11.0,63,0.00,,,0.00,,2013-07-27 13:20:00,
2013-07-27 05:44:00,60.0,48.0,-100.00,WNW,295,6.0,11.0,63,0.00,,,0.00,,2013-07-27 13:44:00,
2013-07-27 06:02:00,60.0,48.0,-100.00,West,280,6.0,11.0,63,0.00,,,0.00,,2013-07-27 14:02:00,
2013-07-27 06:12:00,60.0,48.0,-100.00,West,280,6.0,11.0,63,0.00,,,0.00,,2013-07-27 14:12:00,
2013-07-27 07:12:00,61.0,49.0,-100.00,West,275,6.0,15.0,64,0.00,,,0.00,,2013-07-27 15:12:00,
2013-07-27 07:20:00,61.0,49.0,-100.00,West,270,6.0,15.0,64,0.00,,,0.00,,2013-07-27 15:20:00,
2013-07-27 07:22:00,60.0,48.0,-100.00,West,275,8.0,14.0,64,0.00,,,0.00,,2013-07-27 15:22:00,
2013-07-27 07:44:00,60.0,48.0,-100.00,West,275,8.0,14.0,64,0.00,,,0.00,,2013-07-27 15:44:00,
2013-07-27 08:02:00,61.0,49.0,-100.00,West,270,6.0,15.0,64,0.00,,,0.00,,2013-07-27 16:02:00,
2013-07-27 08:12:00,61.0,49.0,-100.00,West,270,6.0,15.0,64,0.00,,,0.00,,2013-07-27 16:12:00,
2013-07-27 08:20:00,61.0,49.0,-100.00,West,275,6.0,10.0,64,0.00,,,0.00,,2013-07-27 16:20:00,
2013-07-27 08:43:00,61.0,49.0,-100.00,NW,310,5.0,12.0,62,0.00,,,0.00,,2013-07-27 16:43:00,
2013-07-27 09:02:00,61.0,49.0,-100.00,West,275,6.0,10.0,64,0.00,,,0.00,,2013-07-27 17:02:00,
2013-07-27 09:12:00,61.0,49.0,-100.00,West,275,6.0,10.0,64,0.00,,,0.00,,2013-07-27 17:12:00,
2013-07-27 09:20:00,63.0,49.0,-100.00,West,280,7.0,11.0,61,0.00,,,0.00,,2013-07-27 17:20:00,
2013-07-27 09:32:00,61.0,49.0,-100.00,West,265,6.0,14.0,62,0.00,,,0.00,,2013-07-27 17:32:00,
2013-07-27 09:43:00,61.0,49.0,-100.00,West,265,6.0,14.0,62,0.00,,,0.00,,2013-07-27 17:43:00,
2013-07-27 09:53:00,63.0,49.0,-100.00,West,280,7.0,11.0,61,0.00,,,0.00,,2013-07-27 17:53:00,
2013-07-27 10:02:00,63.0,49.0,-100.00,West,280,7.0,11.0,61,0.00,,,0.00,,2013-07-27 18:02:00,
2013-07-27 10:12:00,63.0,49.0,-100.00,West,280,7.0,11.0,61,0.00,,,0.00,,2013-07-27 18:12:00,
2013-07-27 10:20:00,64.0,49.0,-100.00,West,280,7.0,12.0,59,0.00,,,0.00,,2013-07-27 18:20:00,
2013-07-27 10:42:00,63.0,50.0,-100.00,West,280,8.0,15.0,62,0.00,,,0.00,,2013-07-27 18:42:00,
2013-07-27 11:02:00,64.0,49.0,-100.00,West,280,7.0,12.0,59,0.00,,,0.00,,2013-07-27 19:02:00,
2013-07-27 11:12:00,64.0,49.0,-100.00,West,280,7.0,12.0,59,0.00,,,0.00,,2013-07-27 19:12:00,
2013-07-27 11:20:00,67.0,50.0,-100.00,West,275,10.0,15.0,53,0.00,,,0.00,,2013-07-27 19:20:00,
2013-07-27 11:32:00,65.0,49.0,-100.00,WNW,300,6.0,17.0,56,0.00,,,0.00,,2013-07-27 19:32:00,
2013-07-27 11:43:00,65.0,49.0,-100.00,WNW,300,6.0,17.0,56,0.00,,,0.00,,2013-07-27 19:43:00,
2013-07-27 12:02:00,67.0,50.0,-100.00,West,275,10.0,15.0,53,0.00,,,0.00,,2013-07-27 20:02:00,
2013-07-27 12:12:00,67.0,50.0,-100.00,West,275,10.0,15.0,53,0.00,,,0.00,,2013-07-27 20:12:00,
2013-07-27 12:32:00,67.0,49.0,-100.00,WSW,255,6.0,16.0,53,0.00,,,0.00,,2013-07-27 20:32:00,
2013-07-27 12:42:00,67.0,49.0,-100.00,WSW,255,6.0,16.0,53,0.00,,,0.00,,2013-07-27 20:42:00,
2013-07-27 13:02:00,69.0,49.0,-100.00,NW,305,7.0,12.0,48,0.00,,,0.00,,2013-07-27 21:02:00,
2013-07-27 13:12:00,69.0,49.0,-100.00,NW,305,7.0,12.0,48,0.00,,,0.00,,2013-07-27 21:12:00,
2013-07-27 13:33:00,69.0,49.0,-100.00,WNW,290,6.0,19.0,48,0.00,,,0.00,,2013-07-27 21:33:00,
2013-07-27 13:42:00,69.0,49.0,-100.00,WNW,290,6.0,19.0,48,0.00,,,0.00,,2013-07-27 21:42:00,
2013-07-27 13:52:00,71.0,50.0,-100.00,NW,315,6.0,14.0,48,0.00,,,0.00,,2013-07-27 21:52:00,
2013-07-27 14:02:00,71.0,50.0,-100.00,NW,315,6.0,14.0,48,0.00,,,0.00,,2013-07-27 22:02:00,
2013-07-27 14:12:00,71.0,50.0,-100.00,NW,315,6.0,14.0,48,0.00,,,0.00,,2013-07-27 22:12:00,
2013-07-27 14:32:00,69.0,48.0,-100.00,WNW,300,9.0,21.0,47,0.00,,,0.00,,2013-07-27 22:32:00,
2013-07-27 14:43:00,69.0,48.0,-100.00,WNW,300,9.0,21.0,47,0.00,,,0.00,,2013-07-27 22:43:00,
2013-07-27 15:02:00,70.0,49.0,-100.00,WSW,250,4.0,12.0,48,0.00,,,0.00,,2013-07-27 23:02:00,
2013-07-27 15:12:00,70.0,49.0,-100.00,WSW,250,4.0,12.0,48,0.00,,,0.00,,2013-07-27 23:12:00,
2013-07-27 15:22:00,71.0,49.0,-100.00,WNW,285,7.0,19.0,46,0.00,,,0.00,,2013-07-27 23:22:00,
2013-07-27 15:32:00,71.0,49.0,-100.00,WNW,285,7.0,19.0,46,0.00,,,0.00,,2013-07-27 23:32:00,
2013-07-27 15:44:00,71.0,49.0,-100.00,WNW,285,7.0,19.0,46,0.00,,,0.00,,2013-07-27 23:44:00,
2013-07-27 15:52:00,72.0,50.0,-100.00,NW,310,4.0,14.0,45,0.00,,,0.00,,2013-07-27 23:52:00,
2013-07-27 16:02:00,72.0,50.0,-100.00,NW,310,4.0,14.0,45,0.00,,,0.00,,2013-07-28 00:02:00,
2013-07-27 16:12:00,72.0,50.0,-100.00,NW,310,4.0,14.0,45,0.00,,,0.00,,2013-07-28 00:12:00,
2013-07-27 16:22:00,73.0,49.0,-100.00,NW,310,4.0,11.0,43,0.00,,,0.00,,2013-07-28 00:22:00,
2013-07-27 16:32:00,73.0,49.0,-100.00,NW,310,4.0,11.0,43,0.00,,,0.00,,2013-07-28 00:32:00,
2013-07-27 16:44:00,73.0,49.0,-100.00,NW,310,4.0,11.0,43,0.00,,,0.00,,2013-07-28 00:44:00,
2013-07-27 16:53:00,75.0,49.0,-100.00,WNW,295,4.0,10.0,38,0.00,,,0.00,,2013-07-28 00:53:00,
2013-07-27 17:02:00,75.0,49.0,-100.00,WNW,295,4.0,10.0,38,0.00,,,0.00,,2013-07-28 01:02:00,
2013-07-27 17:12:00,75.0,49.0,-100.00,WNW,295,4.0,10.0,38,0.00,,,0.00,,2013-07-28 01:12:00,
2013-07-27 17:32:00,74.0,46.0,-100.00,NW,315,6.0,12.0,36,0.00,,,0.00,,2013-07-28 01:32:00,
2013-07-27 17:43:00,74.0,46.0,-100.00,NW,315,6.0,12.0,36,0.00,,,0.00,,2013-07-28 01:43:00,
2013-07-27 18:02:00,74.0,46.0,-100.00,WNW,300,5.0,10.0,37,0.00,,,0.00,,2013-07-28 02:02:00,
2013-07-27 18:12:00,74.0,46.0,-100.00,WNW,300,5.0,10.0,37,0.00,,,0.00,,2013-07-28 02:12:00,
2013-07-27 18:20:00,75.0,47.0,-100.00,West,270,7.0,14.0,37,0.00,,,0.00,,2013-07-28 02:20:00,
2013-07-27 18:32:00,74.0,47.0,-100.00,West,275,6.0,12.0,38,0.00,,,0.00,,2013-07-28 02:32:00,
2013-07-27 18:42:00,74.0,47.0,-100.00,West,275,6.0,12.0,38,0.00,,,0.00,,2013-07-28 02:42:00,
2013-07-27 18:53:00,75.0,47.0,-100.00,West,270,7.0,14.0,37,0.00,,,0.00,,2013-07-28 02:53:00,
2013-07-27 19:02:00,75.0,47.0,-100.00,West,270,7.0,14.0,37,0.00,,,0.00,,2013-07-28 03:02:00,
2013-07-27 19:12:00,75.0,47.0,-100.00,West,270,7.0,14.0,37,0.00,,,0.00,,2013-07-28 03:12:00,
2013-07-27 19:20:00,73.0,46.0,-100.00,West,275,6.0,11.0,38,0.00,,,0.00,,2013-07-28 03:20:00,
2013-07-27 19:32:00,74.0,46.0,-100.00,NW,325,7.0,12.0,37,0.00,,,0.00,,2013-07-28 03:32:00,
2013-07-27 19:42:00,74.0,46.0,-100.00,NW,325,7.0,12.0,37,0.00,,,0.00,,2013-07-28 03:42:00,
2013-07-27 20:02:00,73.0,46.0,-100.00,West,275,6.0,11.0,38,0.00,,,0.00,,2013-07-28 04:02:00,
2013-07-27 20:12:00,73.0,46.0,-100.00,West,275,6.0,11.0,38,0.00,,,0.00,,2013-07-28 04:12:00,
2013-07-27 20:43:00,73.0,45.0,-100.00,NW,315,7.0,14.0,37,0.00,,,0.00,,2013-07-28 04:43:00,
2013-07-27 20:53:00,73.0,44.0,-100.00,WNW,290,6.0,14.0,35,0.00,,,0.00,,2013-07-28 04:53:00,
2013-07-27 21:02:00,73.0,44.0,-100.00,WNW,290,6.0,14.0,35,0.00,,,0.00,,2013-07-28 05:02:00,
2013-07-27 21:12:00,73.0,44.0,-100.00,WNW,290,6.0,14.0,35,0.00,,,0.00,,2013-07-28 05:12:00,
2013-07-27 21:43:00,71.0,44.0,-100.00,West,270,4.0,7.0,37,0.00,,,0.00,,2013-07-28 05:43:00,
2013-07-27 22:32:00,72.0,44.0,-100.00,WNW,285,2.0,6.0,37,0.00,,,0.00,,2013-07-28 06:32:00,
2013-07-27 22:42:00,72.0,44.0,-100.00,WNW,285,2.0,6.0,37,0.00,,,0.00,,2013-07-28 06:42:00,